Probability
0 0 0 0 0 0 0 0 0 0 0 0 0 0 0 0 0 0 0 0 0 0 0 0 0 0 0 0 0 0 0 0 0 0 0 0 0 0 0 0 0 0 0 0
0 0 0 0 0 0 0 0 0 0 0 0 0 0 0 0 0 0 0 0 0 0 0 0 0 0 0 0 0 0 0 0 0 0 0 0 0 0 0 0 0 0 0 0
0 0 0 0 0 0 0 0 0 0 0 0 0 0 0 0 0 0 0 0 0 0 0 0 0 0 0 0 0 0 0 0 0 0 0 0 0 0 0 0 0 0 0 0
0 0 0 0 0 0 0 0 0 0 0 0 0 0 0 0 0 0 0 0 0 0 0 0 0 0 0 0 0 0 0 0 0 0 0 0 0 0 0 0 0 0 0 0
0 0 0 0 0 0 0 0 0 0 0 0 0 0 0 0 0 0 0 0 0 0 0 0 0 0 0 0 0 0 0 0 0 0 0 0 0 0 0 0 0 0 0 0
0 0 0 0 0 0 0 0 0 0 0 0 0 0 0 0 0 0 0 0 0 0 0 0 0 0 0 0 0 0 0 0 0 0 0 0 0 0 0 0 0 0 0 0
0 0 0 0 0 0 0 0 0 0 0 0 0 0 0 0 0 0 0 0 0 0 0 0 0 0 0 0 0 0 0 0 0 0 0 0 0 0 0 0 0 0 0 0
0 0 0 0 0 0 0 0 0 0 0 0 0 0 0 0 0 0 0 0 0 0 0 0 0 0 0 0 0 0 0 0 0 0 0 0 0 0 0 0 0 0 0 0
0 0 0 0 0 0 0 0 0 0 0 0 0 0 0 0 0 0 0 0 0 0 0 0 0 0 0 0 0 0 0 0 0 0 0 0 0 0 0 0 0 0 0 0
0 0 0 0 0 0 0 0 0 0 0 0 0 0 0 0 0 0 0 0 0 0 0 0 0 0 0 0 0 0 0 0 0 0 0 0 0 0 0 0 0 0 0 0
0 0 0 0 0 0 0 0 0 0 0 0 0 0 0 0 0 0 0 0 0 0 0 0 0 0 0 0 0 0 0 0 0 0 0 0 0 0 0 0 0 0 0 0
0 0 0 0 0 0 0 0 0 0 0 0 0 0 0 0 0 0 0 0 0 0 0 0 0 0 0 0 0 0 0 0 0 0 0 0 0 0 0 0 0 0 0 0
0 0 0 0 0 0 0 0 0 0 0 0 0 0 0 0 0 0 0 0 0 0 0 0 0 0 0 0 0 0 0 0 0 0 0 0 0 0 0 0 0 0 0 0
0 0 0 0 0 0 0 0 0 0 0 0 0 0 0 0 0 0 0 0 0 0 0 0 0 0 0 0 0 0 0 0 0 0 0 0 0 0 0 0 0 0 0 0
0 0 0 0 0 0 0 0 0 0 0 0 0 0 0 0 0 0 0 0 0 0 0 0 0 0 0 0 0 0 0 0 0 0 0 0 0 0 0 0 0 0 0 0
0 0 0 0 0 0 0 0 0 0 0 0 0 0 0 0 0 0 0 0 0 0 0 0 0 0 0 0 0 0 0 0 0 0 0 0 0 0 0 0 0 0 0 0
0 0 0 0 0 0 0 0 0 0 0 0 0 0 0 0 0 0 0 0 0 0 0 0 0 0 0 0 0 0 0 0 0 0 0 0 0 0 0 0 0 0 0 0
0 0 0 0 0 0 0 0 0 0 0 0 0 0 0 0 0 0 0 0 0 0 0 0 0 0 0 0 0 0 0 0 0 0 0 0 0 0 0 0 0 0 0 0
0 0 0 0 0 0 0 0 0 0 0 0 0 0 0 0 0 0 0 0 0 0 0 0 0 0 0 0 0 0 0 0 0 0 0 0 0 0 0 0 0 0 0 0
0 0 0 0 0 0 0 0 0 0 0 0 0 0 0 0 0 0 0 0 0 0 0 0 0 0 0 0 0 0 0 0 0 0 0 0 0 0 0 0 0 0 0 0
0 0 0 0 0 0 0 0 0 0 0 0 0 0 0 0 0 0 0 0 0 0 0 0 0 0 0 0 0 0 0 0 0 0 0 0 0 0 0 0 0 0 0 0
0 0 0 0 0 0 0 0 0 0 0 0 0 0 0 0 0 0 0 0 0 0 0 0 0 0 0 0 0 0 0 0 0 0 0 0 0 0 0 0 0 0 0 0
0 0 0 0 0 0 0 0 0 0 0 0 0 0 0 0 0 0 0 0 0 0 0 0 0 0 0 0 0 0 0 0 0 0 0 0 0 0 0 0 0 0 0 0
0 0 0 0 0 0 0 0 0 0 0 0 0 0 0 0 0 0 0 0 0 0 0 0 0 0 0 0 0 0 0 0 0 0 0 0 0 0 0 0 0 0 0 0
0 0 0 0 0 0 0 0 0 0 0 0 0 0 0 0 0 0 0 0 0 0 0 0 0 0 0 0 0 0 0 0 0 0 0 0 0 0 0 0 0 0 0 0
0 0 0 0 0 0 0 0 0 0 0 0 0 0 0 0 0 0 0 0 0 0 0 0 0 0 0 0 0 0 0 0 0 0 0 0 0 0 0 0 0 0 0 0
Height
5734 5733 5730 5728 5725 5724 5721 5720 5718 5717 5715 5714 5713 5712 5711 5710 5710 5709 5709 5709 5709 5710 5711 5712 5713 5714 5715 5717 5719 5720 5723 5725 5728 5730 5733 5735 5737 5740 5743 5746 5749 5752 5755 5758
5731 5728 5726 5723 5721 5720 5718 5716 5715 5714 5711 5710 5708 5708 5706 5706 5705 5705 5704 5704 5703 5704 5704 5705 5706 5708 5709 5710 5712 5714 5716 5718 5720 5723 5725 5727 5730 5732 5735 5738 5741 5744 5747 5750
5726 5725 5721 5719 5717 5716 5714 5713 5711 5709 5708 5706 5705 5704 5702 5701 5700 5700 5699 5698 5698 5698 5698 5699 5700 5702 5703 5705 5706 5708 5710 5711 5714 5716 5718 5721 5723 5725 5728 5731 5733 5736 5739 5742
5722 5720 5718 5716 5714 5712 5710 5709 5707 5705 5704 5702 5701 5699 5699 5697 5696 5695 5695 5694 5693 5693 5693 5694 5694 5696 5698 5699 5700 5702 5703 5705 5706 5708 5711 5714 5716 5718 5721 5723 5726 5728 5731 5734
5718 5716 5714 5712 5710 5708 5706 5705 5704 5702 5699 5698 5697 5695 5695 5692 5691 5691 5690 5690 5689 5688 5688 5689 5690 5691 5692 5694 5695 5696 5698 5699 5700 5702 5704 5707 5709 5711 5713 5716 5718 5721 5724 5726
5714 5712 5710 5708 5706 5704 5702 5701 5700 5698 5696 5695 5693 5691 5690 5688 5687 5686 5685 5685 5684 5683 5683 5684 5684 5685 5687 5688 5690 5691 5692 5693 5694 5696 5698 5700 5702 5704 5706 5708 5711 5713 5715 5718
5709 5708 5706 5704 5702 5700 5699 5698 5696 5693 5691 5690 5689 5686 5686 5685 5683 5681 5680 5679 5678 5678 5678 5679 5679 5680 5681 5682 5684 5685 5686 5688 5688 5690 5692 5693 5695 5697 5699 5701 5703 5705 5707 5710
5703 5703 5701 5700 5698 5696 5694 5693 5692 5690 5687 5686 5685 5682 5683 5681 5678 5676 5675 5674 5673 5673 5674 5674 5674 5675 5676 5677 5678 5679 5680 5682 5683 5684 5685 5686 5688 5690 5692 5694 5696 5697 5699 5701
5697 5697 5696 5694 5693 5692 5690 5689 5687 5685 5683 5681 5680 5679 5678 5676 5674 5672 5670 5669 5669 5669 5669 5669 5669 5669 5670 5671 5672 5673 5674 5675 5676 5678 5679 5680 5681 5683 5685 5686 5688 5690 5692 5693
5691 5690 5690 5689 5688 5687 5686 5684 5682 5680 5677 5676 5676 5675 5674 5671 5669 5667 5666 5664 5664 5663 5663 5663 5663 5664 5664 5665 5666 5667 5668 5669 5670 5671 5672 5673 5675 5676 5677 5679 5680 5682 5683 5685
5684 5684 5683 5683 5682 5681 5680 5679 5677 5675 5673 5671 5669 5672 5669 5666 5664 5662 5661 5659 5658 5658 5658 5658 5658 5658 5659 5659 5660 5661 5661 5662 5663 5664 5665 5666 5667 5668 5670 5671 5672 5673 5675 5676
5677 5676 5676 5676 5675 5674 5673 5672 5671 5670 5668 5666 5664 5667 5663 5661 5659 5657 5655 5654 5653 5653 5652 5652 5652 5652 5653 5653 5653 5654 5654 5655 5656 5657 5658 5659 5660 5661 5662 5663 5664 5665 5666 5667
5669 5668 5668 5668 5669 5668 5666 5665 5664 5663 5661 5660 5658 5661 5657 5654 5653 5651 5650 5649 5648 5647 5646 5646 5646 5645 5645 5646 5646 5647 5647 5648 5649 5650 5651 5651 5652 5653 5653 5654 5655 5656 5657 5657
5660 5660 5660 5660 5659 5658 5658 5658 5657 5655 5654 5653 5652 5652 5651 5648 5646 5645 5644 5643 5642 5641 5640 5639 5639 5638 5638 5638 5638 5639 5640 5640 5640 5641 5641 5642 5643 5644 5644 5645 5645 5646 5646 5647
5650 5651 5651 5651 5651 5650 5649 5649 5649 5647 5646 5645 5646 5644 5643 5640 5639 5638 5637 5636 5635 5634 5634 5633 5632 5631 5631 5631 5631 5631 5631 5631 5631 5632 5632 5633 5633 5634 5634 5635 5635 5635 5635 5635
5640 5641 5641 5642 5642 5640 5640 5641 5640 5639 5638 5637 5636 5636 5635 5633 5631 5630 5629 5628 5628 5627 5626 5626 5625 5624 5624 5623 5623 5623 5623 5623 5623 5623 5623 5623 5623 5624 5624 5624 5624 5624 5624 5624
5630 5630 5630 5631 5631 5629 5630 5633 5631 5630 5630 5629 5627 5629 5626 5625 5624 5623 5622 5620 5620 5619 5619 5618 5617 5617 5617 5616 5615 5615 5615 5614 5614 5614 5614 5614 5613 5613 5613 5613 5612 5612 5612 5612
5620 5620 5619 5619 5620 5619 5624 5622 5622 5621 5620 5620 5618 5618 5617 5616 5615 5614 5613 5612 5612 5611 5611 5610 5610 5609 5609 5608 5608 5607 5606 5606 5605 5605 5605 5604 5604 5603 5602 5602 5601 5601 5600 5600
5609 5609 5608 5608 5607 5608 5612 5612 5611 5610 5610 5610 5609 5609 5608 5607 5606 5606 5605 5604 5604 5603 5602 5602 5601 5601 5601 5600 5599 5598 5598 5597 5596 5595 5595 5594 5593 5592 5592 5591 5590 5589 5589 5588
5598 5598 5599 5597 5597 5598 5601 5600 5599 5600 5599 5600 5599 5599 5598 5597 5598 5598 5597 5596 5595 5594 5594 5593 5592 5592 5591 5591 5590 5589 5588 5587 5586 5585 5584 5583 5582 5581 5580 5579 5578 5577 5577 5576
5587 5587 5587 5587 5586 5587 5589 5589 5589 5590 5590 5589 5589 5589 5588 5588 5588 5588 5587 5587 5586 5585 5585 5584 5583 5582 5582 5581 5580 5579 5578 5577 5576 5575 5574 5573 5571 5570 5569 5568 5567 5566 5565 5564
5575 5576 5576 5576 5576 5579 5578 5578 5579 5578 5578 5577 5577 5578 5577 5577 5577 5577 5577 5576 5576 5575 5574 5574 5573 5572 5571 5570 5569 5568 5567 5566 5565 5564 5563 5561 5560 5559 5557 5556 5555 5554 5552 5552
5564 5565 5565 5566 5567 5566 5566 5566 5566 5566 5566 5567 5567 5567 5567 5567 5567 5567 5566 5566 5565 5564 5564 5563 5562 5561 5560 5559 5558 5557 5556 5555 5553 5552 5551 5549 5548 5547 5545 5544 5543 5541 5540 5539
5553 5553 5553 5553 5554 5555 5555 5555 5555 5555 5555 5556 5556 5556 5556 5556 5556 5556 5555 5555 5554 5553 5552 5551 5550 5550 5549 5548 5547 5545 5544 5542 5541 5539 5538 5537 5536 5535 5533 5532 5530 5529 5527 5526
5542 5541 5541 5541 5543 5543 5543 5543 5543 5544 5544 5545 5545 5545 5545 5545 5545 5544 5544 5543 5543 5542 5541 5539 5538 5538 5537 5535 5534 5533 5531 5530 5528 5527 5526 5524 5523 5522 5520 5519 5517 5516 5514 5513
5530 5530 5530 5530 5531 5531 5532 5532 5532 5533 5533 5534 5534 5534 5534 5534 5533 5533 5532 5532 5531 5530 5529 5528 5526 5525 5524 5523 5522 5520 5519 5517 5516 5515 5513 5512 5510 5509 5507 5506 5505 5502 5501 5499
Wind_Speed
20 20 20 20 20 20 20 20 19 19 19 20 20 19 19 19 21 21 22 23 24 25 26 26 27 28 28 29 31 31 31 33 34 35 35 34 36 37 37 38 39 39 40 40
21 20 20 20 21 20 20 20 19 19 19 20 20 19 20 20 19 20 21 22 22 23 25 25 27 28 28 28 29 29 29 30 33 35 36 35 34 36 37 38 38 39 40 41
21 21 20 20 20 20 20 20 20 20 20 20 20 19 20 20 19 19 20 21 22 23 24 25 26 27 27 27 27 28 28 29 31 33 34 34 35 35 36 36 37 38 39 40
22 21 21 20 20 21 20 20 20 20 20 20 20 21 19 20 20 20 20 20 21 22 22 23 24 25 26 27 28 28 27 27 29 30 31 32 32 33 35 36 37 37 38 38
23 21 21 20 20 21 21 21 21 21 20 20 20 21 19 20 20 20 20 20 21 21 21 22 23 24 25 26 26 27 27 27 28 29 30 30 30 31 33 34 36 36 37 38
24 22 22 21 21 21 21 20 21 21 21 20 20 21 20 20 20 20 20 20 21 22 21 21 22 23 25 26 26 26 26 26 27 27 28 29 30 30 31 32 34 35 35 36
25 23 23 22 21 21 21 21 21 22 21 20 21 22 21 21 21 20 20 21 21 22 22 21 22 23 24 25 25 25 26 27 27 27 28 29 30 30 32 33 34 35 36 36
27 25 24 23 22 22 21 22 22 23 23 22 22 23 22 21 22 22 21 21 21 21 22 22 22 23 24 26 27 27 27 27 28 28 29 30 30 31 31 32 32 34 35 36
28 27 25 24 23 22 22 22 22 23 23 23 23 23 22 22 22 22 22 21 21 22 22 23 23 23 24 25 27 27 27 27 28 29 30 30 31 32 32 32 32 33 35 36
29 29 27 26 25 24 24 23 23 24 25 26 24 23 23 23 23 23 23 22 21 22 23 23 24 24 25 26 27 28 29 28 29 29 29 30 31 33 33 34 34 34 35 36
30 30 29 28 27 25 25 25 25 25 26 27 26 25 24 23 23 22 22 22 22 23 23 24 25 25 26 26 27 29 30 30 30 29 29 30 31 32 33 34 35 36 36 37
32 32 31 30 29 28 27 27 26 27 27 27 28 26 25 24 23 23 23 23 23 24 24 24 25 26 27 28 28 28 30 30 31 31 32 31 31 31 32 33 34 34 36 37
34 34 33 33 32 31 30 29 28 29 29 28 28 27 26 25 24 24 24 24 24 24 25 25 26 27 27 28 29 29 30 30 31 32 33 33 33 34 34 35 35 36 37 37
36 35 35 35 34 34 32 31 30 31 30 30 29 29 27 26 25 25 25 25 25 25 25 25 26 27 27 28 29 30 30 31 31 32 33 34 35 36 37 37 38 39 39 39
37 38 37 36 36 35 35 33 33 32 31 32 30 29 28 28 27 26 26 26 25 25 25 26 26 27 28 28 29 29 29 30 31 32 33 34 35 36 37 38 39 40 41 42
39 39 39 38 37 37 37 35 35 34 33 33 32 30 29 30 30 29 28 27 26 26 26 26 26 26 27 27 28 29 29 30 31 32 33 35 36 38 39 40 41 41 42 43
40 41 41 40 39 39 39 36 35 35 34 34 33 30 30 30 30 30 29 28 27 27 26 26 26 26 26 27 28 29 30 31 31 32 33 34 35 37 39 40 41 42 42 43
40 40 41 41 40 41 38 37 36 36 35 34 34 32 31 30 29 29 29 29 28 28 28 28 27 27 27 28 28 29 30 31 32 33 34 35 36 36 38 39 40 40 41 42
40 40 41 41 42 42 39 38 37 37 36 35 34 32 31 31 30 30 29 29 29 29 30 29 29 29 29 29 29 30 30 30 31 33 34 35 36 37 38 39 40 40 41 41
40 40 41 41 42 41 40 38 38 38 38 36 35 34 33 32 32 31 31 31 31 31 31 31 31 31 31 32 32 32 32 33 33 34 35 35 36 37 38 39 39 40 40 41
39 40 40 41 41 42 40 39 39 38 38 37 36 36 36 35 34 32 32 33 33 33 33 33 33 33 33 34 34 34 34 35 35 36 36 37 38 38 39 39 40 41 41 42
39 40 40 40 41 41 40 39 39 39 38 38 37 36 36 36 35 34 34 34 34 34 35 35 35 36 36 36 36 36 36 37 38 38 39 39 40 40 40 41 41 41 42 42
38 38 39 39 39 39 39 39 39 39 39 38 38 37 36 36 36 35 35 36 36 36 37 37 37 38 38 38 37 38 38 39 40 40 40 40 41 41 41 42 42 43 43 43
37 38 38 38 38 38 38 38 38 39 39 38 38 38 38 38 38 38 38 38 38 38 38 39 38 38 39 39 39 39 40 40 41 41 41 41 42 42 42 43 43 43 43 43
37 38 38 39 39 39 39 39 39 39 39 38 39 39 39 39 39 40 39 39 39 39 39 39 39 39 39 40 41 41 41 41 41 42 42 42 42 42 43 42 42 43 43 43
38 39 40 40 40 40 39 39 39 39 39 38 39 39 39 40 40 40 39 39 39 39 39 40 40 40 40 41 41 41 42 42 42 42 42 42 42 42 42 42 42 43 43 44
Wind_Direction
309 305 303 304 305 304 303 301 303 300 295 291 288 284 283 283 277 275 273 271 267 263 258 255 253 253 253 249 248 245 243 244 244 246 247 247 245 243 243 245 246 245 244 245
309 307 304 303 302 302 302 302 302 302 299 294 290 286 284 284 282 276 275 273 271 266 261 257 254 253 254 253 249 246 245 246 245 246 246 247 247 246 245 246 248 247 246 247
309 309 306 304 302 301 300 300 303 302 300 297 292 288 287 285 282 279 276 274 273 271 266 261 257 254 253 252 248 249 250 248 245 245 246 247 247 248 248 248 249 249 248 248
307 308 306 305 304 301 301 300 301 302 300 299 296 292 289 287 284 280 278 276 275 272 268 262 259 255 252 252 250 250 252 250 248 247 248 248 248 249 249 249 249 249 249 249
305 307 306 306 305 301 300 300 300 300 299 299 299 295 293 290 287 282 279 278 275 272 269 264 259 256 254 255 255 253 253 253 252 250 249 248 250 251 249 249 249 249 250 251
300 303 304 305 306 303 301 300 300 300 299 298 300 298 296 294 292 287 282 279 276 272 269 265 260 255 254 255 258 258 256 256 254 252 249 248 250 252 252 251 251 250 251 253
296 298 302 304 304 303 301 301 301 302 302 300 301 301 299 300 296 291 285 282 277 272 269 267 262 256 254 255 257 259 257 257 256 254 253 251 250 252 253 253 252 252 252 253
294 295 298 300 302 303 301 300 302 303 302 301 302 302 300 303 299 292 285 282 278 274 270 269 266 262 258 257 258 259 259 258 257 257 256 254 253 253 255 256 257 254 254 254
291 292 294 296 298 299 299 297 297 299 300 301 303 303 300 300 300 294 286 281 278 274 271 269 270 267 263 260 260 261 261 261 260 260 259 257 255 255 257 258 259 258 257 256
286 288 289 291 292 293 294 295 295 296 298 299 300 302 303 302 300 298 290 283 279 275 273 269 269 269 267 265 263 263 261 261 260 261 261 260 259 259 258 260 261 261 261 261
283 284 285 286 287 290 290 290 292 293 293 294 297 299 302 304 302 300 294 286 279 275 273 271 269 270 270 268 265 263 262 262 260 260 262 263 262 260 260 261 262 263 263 264
280 282 282 283 284 286 287 287 288 290 291 291 293 295 298 299 299 297 293 288 282 277 273 271 270 270 270 269 267 265 263 264 263 263 263 265 265 263 263 263 264 265 266 267
278 279 280 280 281 283 285 286 286 287 288 288 288 292 294 293 293 292 290 289 283 278 277 274 271 270 270 269 267 266 265 267 267 267 266 266 265 263 263 265 266 266 267 268
275 276 277 279 281 282 283 283 284 285 285 286 287 288 290 290 289 287 287 287 284 280 278 276 274 272 272 271 268 267 267 267 267 266 265 265 264 264 264 266 267 267 268 269
273 273 275 276 277 278 280 281 282 282 283 283 284 285 286 287 287 285 284 284 282 280 278 276 275 275 274 272 271 271 270 269 269 268 267 267 266 266 267 268 268 268 269 270
271 272 273 274 275 276 277 279 280 280 281 281 281 282 284 285 284 284 282 280 280 279 277 276 276 276 276 275 274 273 272 272 271 271 269 269 268 267 269 270 270 270 270 270
270 271 273 274 274 275 275 277 279 279 280 280 281 283 282 281 281 282 282 279 279 278 278 277 276 275 275 276 277 276 274 273 273 273 272 272 271 270 271 272 272 272 272 271
270 271 273 275 274 274 278 278 278 278 278 279 280 280 280 280 280 280 280 280 279 277 277 277 276 275 276 277 277 277 276 274 274 274 274 273 274 274 273 274 274 274 274 274
269 270 271 273 274 275 276 278 278 278 277 278 279 279 278 278 277 278 279 280 279 278 277 277 276 276 276 277 278 277 276 275 275 275 275 275 275 275 275 275 275 275 275 276
269 269 270 272 273 274 276 277 277 277 276 276 277 277 277 276 275 275 276 277 278 277 277 276 276 276 276 277 277 277 277 277 278 277 277 276 276 276 276 276 275 275 275 276
270 270 270 272 273 274 275 277 278 277 277 277 277 276 276 276 275 275 275 276 277 277 277 276 276 277 277 278 279 278 277 277 278 278 277 277 277 277 277 277 277 276 277 277
270 270 270 270 271 272 274 274 275 276 276 276 276 276 276 276 275 274 275 276 276 277 277 276 276 276 277 278 278 278 278 279 279 279 277 277 277 277 278 278 277 277 277 277
268 269 269 269 270 271 272 273 274 274 275 275 276 276 276 276 275 276 276 277 277 277 278 277 277 276 276 277 278 278 279 279 279 279 278 278 278 278 278 278 278 277 277 277
266 266 267 267 268 269 270 271 271 271 272 273 274 275 275 275 276 276 277 278 278 279 279 279 278 277 277 277 278 279 279 279 279 279 279 278 279 279 278 278 279 278 277 277
265 265 265 265 266 268 269 270 270 270 271 272 273 274 275 276 277 277 278 278 278 280 280 279 278 278 278 279 279 279 280 281 280 280 279 280 279 279 279 279 279 279 278 277
266 265 265 264 265 267 267 267 268 269 271 272 272 272 273 274 275 276 277 277 278 279 280 280 279 279 279 280 280 281 281 281 281 281 281 281 280 280 280 280 280 280 280 279